Time,TemperatureF,DewpointF,PressureIn,WindDirection,WindDirectionDegrees,WindSpeedMPH,WindSpeedGustMPH,Humidity,HourlyPrecipIn,Conditions,Clouds,dailyrainin,SoftwareType,DateUTC
2013-03-15 00:10:00,29.2,10.0,29.94,NW,315,5.0,9.0,44,0.00,,,-99.99,WeatherLink 5.7,2013-03-15 04:10:00,
2013-03-15 00:30:00,29.3,9.5,29.95,NW,315,5.0,11.0,43,0.00,,,-99.99,WeatherLink 5.7,2013-03-15 04:30:00,
2013-03-15 00:40:00,29.1,9.9,29.95,NW,315,4.0,9.0,44,0.00,,,-99.99,WeatherLink 5.7,2013-03-15 04:40:00,
2013-03-15 01:00:00,28.7,10.5,29.95,NW,315,3.0,9.0,46,0.00,,,-99.99,WeatherLink 5.7,2013-03-15 05:00:00,
2013-03-15 01:10:00,28.6,10.4,29.95,NW,315,4.0,12.0,46,0.00,,,-99.99,WeatherLink 5.7,2013-03-15 05:10:00,
2013-03-15 01:20:00,28.6,10.4,29.95,WNW,292,4.0,12.0,46,0.00,,,-99.99,WeatherLink 5.7,2013-03-15 05:20:00,
2013-03-15 01:30:00,28.5,10.8,29.96,NW,315,4.0,7.0,47,0.00,,,-99.99,WeatherLink 5.7,2013-03-15 05:30:00,
2013-03-15 01:50:00,28.2,11.0,29.96,WNW,292,2.0,9.0,48,0.00,,,-99.99,WeatherLink 5.7,2013-03-15 05:50:00,
2013-03-15 02:00:00,27.8,11.5,29.97,NW,315,3.0,10.0,50,0.00,,,-99.99,WeatherLink 5.7,2013-03-15 06:00:00,
2013-03-15 02:10:00,27.8,11.1,29.96,NW,315,4.0,8.0,49,0.00,,,-99.99,WeatherLink 5.7,2013-03-15 06:10:00,
2013-03-15 02:30:00,27.7,11.0,29.97,NW,315,3.0,10.0,49,0.00,,,-99.99,WeatherLink 5.7,2013-03-15 06:30:00,
2013-03-15 02:50:00,27.5,11.3,29.96,NW,315,4.0,9.0,50,0.00,,,-99.99,WeatherLink 5.7,2013-03-15 06:50:00,
2013-03-15 03:10:00,27.2,11.4,29.95,NW,315,2.0,4.0,51,0.00,,,-99.99,WeatherLink 5.7,2013-03-15 07:10:00,
2013-03-15 03:20:00,27.1,11.8,29.95,NW,315,3.0,5.0,52,0.00,,,-99.99,WeatherLink 5.7,2013-03-15 07:20:00,
2013-03-15 03:30:00,26.9,12.0,29.96,NW,315,3.0,7.0,53,0.00,,,-99.99,WeatherLink 5.7,2013-03-15 07:30:00,
2013-03-15 03:40:00,26.8,11.9,29.95,NW,315,3.0,6.0,53,0.00,,,-99.99,WeatherLink 5.7,2013-03-15 07:40:00,
2013-03-15 03:50:00,26.7,12.3,29.95,NW,315,3.0,6.0,54,0.00,,,-99.99,WeatherLink 5.7,2013-03-15 07:50:00,
2013-03-15 04:10:00,26.5,12.1,29.94,NW,315,3.0,7.0,54,0.00,,,-99.99,WeatherLink 5.7,2013-03-15 08:10:00,
2013-03-15 04:30:00,26.3,12.3,29.93,NW,315,3.0,7.0,55,0.00,,,-99.99,WeatherLink 5.7,2013-03-15 08:30:00,
2013-03-15 04:40:00,26.2,12.2,29.94,NW,315,2.0,5.0,55,0.00,,,-99.99,WeatherLink 5.7,2013-03-15 08:40:00,
2013-03-15 04:50:00,26.2,12.6,29.93,NW,315,2.0,5.0,56,0.00,,,-99.99,WeatherLink 5.7,2013-03-15 08:50:00,
2013-03-15 05:00:00,26.2,12.6,29.93,NW,315,1.0,4.0,56,0.00,,,-99.99,WeatherLink 5.7,2013-03-15 09:00:00,
2013-03-15 05:10:00,26.2,13.0,29.94,NW,315,0.0,3.0,57,0.00,,,-99.99,WeatherLink 5.7,2013-03-15 09:10:00,
2013-03-15 05:20:00,26.0,12.8,29.94,NW,315,1.0,4.0,57,0.00,,,-99.99,WeatherLink 5.7,2013-03-15 09:20:00,
2013-03-15 05:40:00,26.0,12.4,29.94,NNW,337,1.0,4.0,56,0.00,,,-99.99,WeatherLink 5.7,2013-03-15 09:40:00,
2013-03-15 06:00:00,25.7,13.3,29.95,WNW,292,0.0,2.0,59,0.00,,,-99.99,WeatherLink 5.7,2013-03-15 10:00:00,
2013-03-15 06:20:00,24.8,13.2,29.95,WNW,292,0.0,1.0,61,0.00,,,-99.99,WeatherLink 5.7,2013-03-15 10:20:00,
2013-03-15 06:40:00,24.4,12.5,29.95,WNW,292,0.0,1.0,60,0.00,,,-99.99,WeatherLink 5.7,2013-03-15 10:40:00,
2013-03-15 07:00:00,24.0,12.5,29.95,WNW,292,0.0,1.0,61,0.00,,,-99.99,WeatherLink 5.7,2013-03-15 11:00:00,
2013-03-15 07:20:00,23.6,12.5,29.96,North,-999,0.0,0.0,62,0.00,,,-99.99,WeatherLink 5.7,2013-03-15 11:20:00,
2013-03-15 07:40:00,23.4,12.6,29.96,NW,315,0.0,1.0,63,0.00,,,-99.99,WeatherLink 5.7,2013-03-15 11:40:00,
2013-03-15 08:00:00,23.9,13.1,29.96,North,-999,0.0,0.0,63,0.00,,,-99.99,WeatherLink 5.7,2013-03-15 12:00:00,
2013-03-15 08:20:00,24.7,12.8,29.95,NW,315,0.0,2.0,60,0.00,,,-99.99,WeatherLink 5.7,2013-03-15 12:20:00,
2013-03-15 08:40:00,27.3,14.1,29.95,NW,315,1.0,3.0,57,0.00,,,-99.99,WeatherLink 5.7,2013-03-15 12:40:00,
2013-03-15 09:00:00,28.4,14.3,29.94,NNW,337,1.0,3.0,55,0.00,,,-99.99,WeatherLink 5.7,2013-03-15 13:00:00,
2013-03-15 09:20:00,29.3,13.8,29.95,NNW,337,1.0,4.0,52,0.00,,,-99.99,WeatherLink 5.7,2013-03-15 13:20:00,
2013-03-15 09:30:00,30.4,14.0,29.93,North,0,2.0,4.0,50,0.00,,,-99.99,WeatherLink 5.7,2013-03-15 13:30:00,
2013-03-15 09:50:00,32.1,15.1,29.93,North,0,1.0,5.0,49,0.00,,,-99.99,WeatherLink 5.7,2013-03-15 13:50:00,
2013-03-15 10:10:00,35.0,15.3,29.92,NNW,337,1.0,5.0,44,0.00,,,-99.99,WeatherLink 5.7,2013-03-15 14:10:00,
2013-03-15 10:30:00,36.7,16.3,29.91,NW,315,2.0,5.0,43,0.00,,,-99.99,WeatherLink 5.7,2013-03-15 14:30:00,
2013-03-15 10:50:00,37.3,17.9,29.90,North,0,2.0,4.0,45,0.00,,,-99.99,WeatherLink 5.7,2013-03-15 14:50:00,
2013-03-15 11:10:00,39.5,19.4,29.89,NW,315,2.0,6.0,44,0.00,,,-99.99,WeatherLink 5.7,2013-03-15 15:10:00,
2013-03-15 11:20:00,40.9,19.5,29.88,North,0,2.0,6.0,42,0.00,,,-99.99,WeatherLink 5.7,2013-03-15 15:20:00,
2013-03-15 11:30:00,41.1,20.3,29.87,North,0,2.0,6.0,43,0.00,,,-99.99,WeatherLink 5.7,2013-03-15 15:30:00,
2013-03-15 11:40:00,40.6,19.8,29.88,North,0,2.0,8.0,43,0.00,,,-99.99,WeatherLink 5.7,2013-03-15 15:40:00,
2013-03-15 11:50:00,41.0,20.2,29.87,North,0,2.0,5.0,43,0.00,,,-99.99,WeatherLink 5.7,2013-03-15 15:50:00,
2013-03-15 12:00:00,40.6,20.4,29.85,NNW,337,2.0,6.0,44,0.00,,,-99.99,WeatherLink 5.7,2013-03-15 16:00:00,
2013-03-15 12:10:00,41.0,20.7,29.85,North,0,2.0,5.0,44,0.00,,,-99.99,WeatherLink 5.7,2013-03-15 16:10:00,
2013-03-15 12:20:00,40.2,20.0,29.85,North,0,2.0,7.0,44,0.00,,,-99.99,WeatherLink 5.7,2013-03-15 16:20:00,
2013-03-15 12:30:00,39.7,19.5,29.84,North,0,2.0,7.0,44,0.00,,,-99.99,WeatherLink 5.7,2013-03-15 16:30:00,
2013-03-15 12:40:00,40.1,19.9,29.83,South,180,2.0,6.0,44,0.00,,,-99.99,WeatherLink 5.7,2013-03-15 16:40:00,
2013-03-15 12:50:00,40.3,20.1,29.83,North,0,2.0,6.0,44,0.00,,,-99.99,WeatherLink 5.7,2013-03-15 16:50:00,
2013-03-15 13:00:00,40.0,20.3,29.82,North,0,2.0,8.0,45,0.00,,,-99.99,WeatherLink 5.7,2013-03-15 17:00:00,
2013-03-15 13:10:00,40.1,20.4,29.82,NNW,337,2.0,6.0,45,0.00,,,-99.99,WeatherLink 5.7,2013-03-15 17:10:00,
2013-03-15 13:20:00,40.0,20.3,29.82,NNW,337,2.0,6.0,45,0.00,,,-99.99,WeatherLink 5.7,2013-03-15 17:20:00,
2013-03-15 13:30:00,39.7,20.6,29.82,North,0,2.0,7.0,46,0.00,,,-99.99,WeatherLink 5.7,2013-03-15 17:30:00,
2013-03-15 13:40:00,39.4,20.8,29.81,NNW,337,2.0,8.0,47,0.00,,,-99.99,WeatherLink 5.7,2013-03-15 17:40:00,
2013-03-15 13:50:00,39.6,21.0,29.80,West,270,2.0,7.0,47,0.00,,,-99.99,WeatherLink 5.7,2013-03-15 17:50:00,
2013-03-15 14:00:00,40.2,21.6,29.80,NNE,22,2.0,9.0,47,0.00,,,-99.99,WeatherLink 5.7,2013-03-15 18:00:00,
2013-03-15 14:10:00,40.5,21.8,29.79,North,0,2.0,5.0,47,0.00,,,-99.99,WeatherLink 5.7,2013-03-15 18:10:00,
2013-03-15 14:21:00,40.9,22.2,29.79,North,0,2.0,7.0,47,0.00,,,-99.99,WeatherLink 5.7,2013-03-15 18:21:00,
2013-03-15 14:30:00,42.0,22.7,29.78,NW,315,1.0,5.0,46,0.00,,,-99.99,WeatherLink 5.7,2013-03-15 18:30:00,
2013-03-15 14:40:00,42.4,23.1,29.78,NNW,337,3.0,9.0,46,0.00,,,-99.99,WeatherLink 5.7,2013-03-15 18:40:00,
2013-03-15 14:50:00,42.6,23.2,29.77,NNW,337,4.0,9.0,46,0.00,,,-99.99,WeatherLink 5.7,2013-03-15 18:50:00,
2013-03-15 15:00:00,43.2,23.3,29.77,North,0,2.0,9.0,45,0.00,,,-99.99,WeatherLink 5.7,2013-03-15 19:00:00,
2013-03-15 15:20:00,42.0,22.7,29.75,North,0,2.0,8.0,46,0.00,,,-99.99,WeatherLink 5.7,2013-03-15 19:20:00,
2013-03-15 15:40:00,42.8,23.4,29.75,North,0,2.0,8.0,46,0.00,,,-99.99,WeatherLink 5.7,2013-03-15 19:40:00,
2013-03-15 15:50:00,43.1,23.7,29.74,North,0,2.0,10.0,46,0.00,,,-99.99,WeatherLink 5.7,2013-03-15 19:50:00,
2013-03-15 16:00:00,43.4,24.5,29.73,North,0,3.0,11.0,47,0.00,,,-99.99,WeatherLink 5.7,2013-03-15 20:00:00,
2013-03-15 16:10:00,43.8,24.3,29.73,North,0,4.0,10.0,46,0.00,,,-99.99,WeatherLink 5.7,2013-03-15 20:10:00,
2013-03-15 16:30:00,42.8,24.4,29.73,North,0,2.0,5.0,48,0.00,,,-99.99,WeatherLink 5.7,2013-03-15 20:30:00,
2013-03-15 16:40:00,43.1,24.7,29.72,North,0,2.0,6.0,48,0.00,,,-99.99,WeatherLink 5.7,2013-03-15 20:40:00,
2013-03-15 16:50:00,43.1,24.7,29.72,North,0,2.0,8.0,48,0.00,,,-99.99,WeatherLink 5.7,2013-03-15 20:50:00,
2013-03-15 17:10:00,43.0,25.1,29.72,North,0,2.0,7.0,49,0.00,,,-99.99,WeatherLink 5.7,2013-03-15 21:10:00,
2013-03-15 17:30:00,42.8,24.9,29.71,WNW,292,2.0,8.0,49,0.00,,,-99.99,WeatherLink 5.7,2013-03-15 21:30:00,
2013-03-15 17:40:00,42.8,25.4,29.72,NW,315,1.0,4.0,50,0.00,,,-99.99,WeatherLink 5.7,2013-03-15 21:40:00,
2013-03-15 18:00:00,42.7,25.3,29.71,North,0,1.0,5.0,50,0.00,,,-99.99,WeatherLink 5.7,2013-03-15 22:00:00,
2013-03-15 18:10:00,42.7,25.8,29.71,North,0,1.0,5.0,51,0.00,,,-99.99,WeatherLink 5.7,2013-03-15 22:10:00,
2013-03-15 18:20:00,42.6,26.2,29.71,North,0,0.0,3.0,52,0.00,,,-99.99,WeatherLink 5.7,2013-03-15 22:20:00,
2013-03-15 18:30:00,42.3,26.4,29.71,North,0,1.0,3.0,53,0.00,,,-99.99,WeatherLink 5.7,2013-03-15 22:30:00,
2013-03-15 18:40:00,42.1,26.2,29.72,North,0,0.0,4.0,53,0.00,,,-99.99,WeatherLink 5.7,2013-03-15 22:40:00,
2013-03-15 18:50:00,41.8,26.4,29.72,NNE,22,0.0,2.0,54,0.00,,,-99.99,WeatherLink 5.7,2013-03-15 22:50:00,
2013-03-15 19:00:00,41.6,26.2,29.72,NNW,337,0.0,2.0,54,0.00,,,-99.99,WeatherLink 5.7,2013-03-15 23:00:00,
2013-03-15 19:10:00,41.3,26.3,29.72,NW,315,0.0,2.0,55,0.00,,,-99.99,WeatherLink 5.7,2013-03-15 23:10:00,
2013-03-15 19:20:00,41.1,26.6,29.72,NW,315,0.0,2.0,56,0.00,,,-99.99,WeatherLink 5.7,2013-03-15 23:20:00,
2013-03-15 19:40:00,40.9,26.4,29.73,NW,315,1.0,3.0,56,0.00,,,-99.99,WeatherLink 5.7,2013-03-15 23:40:00,
2013-03-15 20:00:00,41.7,26.3,29.74,NW,315,2.0,5.0,54,0.00,,,-99.99,WeatherLink 5.7,2013-03-16 00:00:00,
2013-03-15 20:10:00,42.2,26.7,29.73,NW,315,3.0,7.0,54,0.00,,,-99.99,WeatherLink 5.7,2013-03-16 00:10:00,
2013-03-15 20:20:00,42.4,26.9,29.74,NW,315,3.0,8.0,54,0.00,,,-99.99,WeatherLink 5.7,2013-03-16 00:20:00,
2013-03-15 20:30:00,42.5,27.5,29.74,NW,315,3.0,6.0,55,0.00,,,-99.99,WeatherLink 5.7,2013-03-16 00:30:00,
2013-03-15 20:50:00,42.5,28.3,29.74,NW,315,3.0,8.0,57,0.00,,,-99.99,WeatherLink 5.7,2013-03-16 00:50:00,
2013-03-15 21:00:00,42.4,28.2,29.74,NW,315,3.0,6.0,57,0.00,,,-99.99,WeatherLink 5.7,2013-03-16 01:00:00,
2013-03-15 21:10:00,42.4,28.7,29.74,NW,315,2.0,5.0,58,0.00,,,-99.99,WeatherLink 5.7,2013-03-16 01:10:00,
2013-03-15 21:20:00,42.0,28.3,29.74,NW,315,3.0,6.0,58,0.00,,,-99.99,WeatherLink 5.7,2013-03-16 01:20:00,
2013-03-15 21:30:00,41.9,28.2,29.74,NNW,337,3.0,6.0,58,0.00,,,-99.99,WeatherLink 5.7,2013-03-16 01:30:00,
2013-03-15 21:50:00,41.8,28.5,29.75,NW,315,2.0,5.0,59,0.00,,,-99.99,WeatherLink 5.7,2013-03-16 01:50:00,
2013-03-15 22:00:00,41.6,28.7,29.75,NW,315,2.0,4.0,60,0.00,,,-99.99,WeatherLink 5.7,2013-03-16 02:00:00,
2013-03-15 22:10:00,41.6,28.7,29.75,NW,315,2.0,6.0,60,0.00,,,-99.99,WeatherLink 5.7,2013-03-16 02:10:00,
2013-03-15 22:30:00,41.5,28.6,29.75,NW,315,2.0,5.0,60,0.00,,,-99.99,WeatherLink 5.7,2013-03-16 02:30:00,
2013-03-15 22:50:00,40.9,28.5,29.76,NW,315,3.0,5.0,61,0.00,,,-99.99,WeatherLink 5.7,2013-03-16 02:50:00,
2013-03-15 23:10:00,40.8,28.4,29.76,NW,315,3.0,7.0,61,0.00,,,-99.99,WeatherLink 5.7,2013-03-16 03:10:00,
2013-03-15 23:30:00,40.5,28.5,29.77,NW,315,3.0,8.0,62,0.00,,,-99.99,WeatherLink 5.7,2013-03-16 03:30:00,
2013-03-15 23:40:00,40.2,28.2,29.77,NW,315,2.0,7.0,62,0.00,,,-99.99,WeatherLink 5.7,2013-03-16 03:40:00,
2013-03-15 23:50:00,39.8,28.2,29.77,NW,315,2.0,5.0,63,0.00,,,-99.99,WeatherLink 5.7,2013-03-16 03:50:00,